GFSSW_250_spd_132.txt.gz
Wind_Speed
43 40 36 32 27 23 19 22 26 29 31 36 42 48 54 58 61 63 66 67 71 72 79 86 86 87 90 88 90 89 84 75 78 80 80 80 79 77 73 70 69 68 65 62 61
43 42 40 40 33 27 27 29 31 34 40 41 43 45 47 51 55 61 68 71 72 74 75 77 83 92 89 91 94 94 91 86 92 90 88 87 85 85 79 74 74 76 71 69 70
50 48 41 38 35 31 30 30 34 38 44 48 50 53 54 55 56 59 62 66 72 77 78 79 80 83 85 91 96 96 90 99 98 98 97 94 91 91 86 78 77 81 78 78 77
48 45 41 38 38 38 36 34 36 38 44 51 56 58 60 62 65 69 68 69 69 71 74 78 83 85 87 88 93 93 94 101 101 104 103 99 97 94 92 89 84 88 84 82 82
47 46 44 42 42 40 41 43 45 47 49 52 57 62 66 69 76 71 77 78 78 78 78 78 79 84 86 92 94 88 94 99 103 105 105 105 104 103 98 96 93 91 90 86 85
55 53 51 51 50 50 51 51 52 53 56 61 64 67 69 75 80 81 86 86 87 88 87 86 85 86 85 87 89 94 96 95 98 100 102 104 107 110 104 104 101 98 95 92 91
58 57 60 61 61 63 64 69 70 67 72 72 70 72 72 81 83 88 92 90 96 97 98 98 96 93 91 90 89 89 92 95 94 93 94 102 102 100 102 106 108 105 104 100 101
62 64 63 65 68 72 74 80 85 84 85 87 90 88 83 88 88 91 93 96 99 102 104 105 105 103 100 99 95 94 93 87 75 84 87 99 91 92 100 103 103 103 107 107 105
64 68 73 74 78 80 83 87 89 92 98 101 102 101 97 97 100 100 100 102 101 110 108 112 112 111 111 107 107 101 90 85 83 83 89 93 82 91 101 101 98 97 99 101 103
73 75 79 83 86 97 98 97 99 96 99 98 100 102 101 104 108 107 110 111 111 111 114 114 119 122 114 113 108 100 99 97 95 95 101 100 87 90 94 95 94 94 94 98 94
78 84 87 93 98 106 105 105 113 111 97 90 89 89 101 104 108 111 115 117 118 116 116 122 128 125 116 113 111 113 120 115 106 103 106 103 92 94 94 94 91 86 85 88 88
86 88 93 98 104 116 117 111 122 107 88 89 87 89 87 90 98 104 108 112 119 121 120 127 130 118 118 124 125 121 114 116 113 112 111 106 97 95 97 94 94 91 86 86 83
91 96 99 108 112 123 122 124 108 96 89 77 72 75 80 80 85 96 101 103 108 106 118 130 128 124 128 124 127 125 127 120 116 114 116 111 108 101 98 93 96 92 89 87 82
96 103 107 114 123 121 126 116 105 96 86 69 53 55 60 62 65 75 85 90 97 104 109 116 121 120 124 130 133 131 124 122 123 121 120 117 115 107 99 93 96 95 89 86 82
103 108 112 122 120 128 122 113 101 91 71 57 48 42 44 49 53 59 63 70 81 94 99 108 112 111 115 126 132 129 127 130 128 127 122 120 120 109 106 97 97 92 85 85 82
108 114 117 124 130 126 114 96 86 74 64 54 43 35 33 37 40 46 49 54 63 72 81 94 97 99 104 113 119 126 128 132 133 129 131 118 122 109 107 94 89 92 88 84 82
112 117 123 134 125 130 120 91 85 66 58 48 41 33 26 26 32 37 40 46 50 55 63 70 74 81 95 102 105 119 121 123 123 129 126 118 115 107 92 90 83 92 90 86 80
116 121 126 134 135 132 111 95 83 65 57 48 40 32 27 23 24 29 32 36 42 48 52 55 60 66 76 86 99 103 110 106 113 117 120 112 118 91 75 77 85 98 96 89 83
116 123 128 138 128 133 112 98 83 68 60 51 41 32 26 22 22 22 26 28 35 40 43 45 48 55 61 68 79 92 101 95 98 106 112 117 114 107 93 85 95 88 90 90 86
118 124 129 133 138 126 110 101 84 66 59 50 40 31 25 21 21 22 20 21 25 30 30 34 37 40 49 57 65 73 87 91 93 96 108 106 104 95 87 93 92 89 88 90 88
118 123 132 132 134 123 109 100 84 68 59 48 38 27 22 19 19 17 18 19 21 23 23 25 29 32 38 44 54 60 67 75 83 89 99 104 92 83 90 102 94 95 90 93 92
122 128 132 130 129 121 106 96 83 70 61 45 36 28 22 18 14 14 13 14 14 15 15 16 19 25 30 37 46 52 57 62 70 79 86 93 100 91 86 102 109 106 96 98 91
121 127 127 128 128 114 101 92 76 65 55 43 35 28 25 19 14 9 9 9 9 10 14 14 18 24 31 34 38 41 44 48 57 68 82 91 93 89 89 108 113 112 102 84 88
124 128 127 121 115 104 96 87 74 62 53 40 29 25 22 17 10 4 4 5 9 11 11 14 17 20 23 26 30 31 33 40 48 53 65 74 77 82 76 89 106 99 96 91 98
126 126 124 120 115 103 94 81 69 58 48 39 30 24 19 13 7 4 2 5 9 12 14 14 12 7 8 13 17 18 21 27 35 47 50 54 59 64 54 79 79 81 90 92 93
127 124 120 115 111 97 88 76 63 55 43 36 29 23 18 13 13 14 14 13 16 21 20 17 16 14 10 10 13 16 20 23 28 37 43 41 48 45 31 51 66 68 78 87 89
125 113 117 116 108 88 82 68 56 46 39 26 23 24 23 23 28 29 25 26 33 38 38 37 34 23 16 13 9 10 16 23 27 30 35 36 29 42 41 42 45 55 75 78 80

GFSSW_250_spd_138.txt.gz
Wind_Speed
33 28 22 21 21 18 14 13 16 25 31 34 36 41 48 54 59 63 73 78 80 83 85 87 89 91 90 87 85 83 76 71 69 73 76 76 73 75 75 68 61 53 45 44 45
35 26 21 24 23 24 23 18 16 16 22 33 41 46 50 53 59 66 74 79 81 80 86 92 93 91 90 95 91 88 81 77 87 80 81 81 77 81 78 72 68 61 56 51 48
37 31 31 34 33 31 31 32 32 34 31 29 32 40 49 54 60 69 73 76 80 86 89 89 92 92 95 97 95 93 84 94 89 88 88 87 83 89 82 75 74 70 66 58 53
37 32 34 36 37 38 42 43 43 45 46 42 47 44 42 47 56 68 74 76 80 86 90 94 100 98 96 96 99 99 92 94 98 98 96 92 93 90 86 84 81 78 73 66 61
38 36 38 39 42 45 48 51 53 56 57 58 60 60 56 57 71 69 66 72 82 87 89 94 98 99 100 102 104 97 97 100 104 103 101 104 97 97 89 92 89 84 80 72 72
43 43 46 47 50 51 52 56 60 65 66 64 64 66 68 73 75 78 89 81 79 86 95 97 98 102 103 102 105 101 103 103 104 104 104 107 107 106 95 100 96 91 86 81 82
47 48 51 52 56 58 60 65 69 69 71 73 70 73 78 88 88 89 86 89 96 94 93 98 102 105 102 103 107 107 107 106 100 103 106 113 110 100 107 109 105 97 92 88 91
53 56 58 60 63 65 67 70 71 71 75 77 83 87 91 91 92 93 90 92 99 104 105 106 108 107 107 107 106 106 107 103 100 106 107 113 101 105 110 114 112 105 98 94 98
60 63 66 68 70 72 74 77 79 85 89 91 86 82 85 89 93 99 102 103 107 104 106 113 121 116 116 110 112 109 98 98 103 105 110 113 98 110 111 114 114 111 106 103 104
64 66 70 76 78 84 86 89 93 95 85 82 80 84 86 86 89 95 100 106 110 110 111 116 125 128 120 115 113 105 107 107 101 104 111 115 106 105 111 114 113 112 110 108 109
68 72 79 82 87 88 91 98 102 100 82 82 75 67 69 74 71 74 82 97 109 113 117 122 128 126 121 127 120 121 119 115 110 112 115 112 108 110 113 114 112 111 106 105 108
75 81 86 90 93 97 101 105 104 85 87 78 64 53 54 56 62 62 67 82 93 105 119 127 125 115 126 136 133 131 126 118 114 115 118 113 105 106 110 115 111 106 104 102 104
82 88 91 97 101 107 112 110 110 92 83 69 58 50 41 40 45 50 57 66 82 92 106 117 116 124 126 132 136 138 133 123 115 119 117 118 114 104 101 103 104 105 101 97 99
86 90 98 104 108 113 117 122 110 101 89 73 59 55 47 40 34 41 46 51 63 81 93 100 110 121 125 129 132 133 132 131 130 128 120 125 120 113 110 108 104 99 94 85 83
90 96 100 108 113 120 124 123 110 109 98 74 66 52 41 32 34 31 38 45 50 60 76 89 96 105 115 119 126 125 129 130 132 133 129 127 128 111 113 113 107 102 93 84 82
95 101 109 112 118 123 131 126 112 116 103 81 70 57 53 36 28 27 30 37 41 46 54 69 83 92 100 109 117 121 127 127 129 128 138 125 135 114 115 107 106 103 95 85 86
100 107 113 117 124 127 130 123 111 111 102 80 68 59 47 42 30 25 25 27 32 36 42 50 63 76 89 98 106 106 109 122 128 129 128 121 135 122 114 111 107 100 96 94 91
104 111 113 120 126 129 134 120 111 114 101 82 67 54 45 40 34 26 23 22 24 25 32 39 48 59 71 83 95 99 103 108 113 122 121 118 135 121 108 112 112 107 101 98 98
106 112 117 122 125 131 132 122 112 117 92 78 63 53 49 39 31 31 22 20 19 21 27 33 39 46 55 65 76 86 92 99 105 108 118 121 123 117 114 114 117 111 103 98 100
108 114 120 121 125 130 131 121 117 113 87 75 58 48 41 36 29 25 21 19 17 19 22 31 34 40 45 53 62 70 77 85 93 97 103 104 116 117 115 116 119 113 108 101 100
110 115 121 125 129 130 137 120 118 100 85 72 57 50 42 34 25 23 21 12 16 13 16 22 29 35 40 46 51 58 63 68 78 85 92 91 96 103 105 123 124 118 113 108 103
112 117 120 125 130 134 135 115 114 97 85 69 62 54 43 34 26 19 13 8 10 7 10 14 20 27 30 34 41 48 52 56 60 68 78 85 81 91 97 109 116 124 115 111 107
111 119 122 126 125 134 127 117 105 91 82 67 58 54 44 34 26 17 11 5 2 2 4 5 9 13 16 20 25 32 37 44 48 53 61 67 76 83 84 96 105 113 118 113 107
112 119 125 127 133 137 123 113 100 84 76 62 55 51 34 26 21 14 11 9 8 4 5 5 7 5 6 10 15 21 24 29 37 42 49 52 64 71 76 84 89 93 101 105 108
114 120 127 129 130 137 118 107 83 75 64 53 50 42 31 27 24 21 17 12 11 11 11 10 7 5 5 3 3 7 12 21 26 27 32 38 42 43 53 69 75 77 79 83 92
116 119 126 131 133 134 111 99 80 67 52 42 35 33 31 21 18 26 28 28 22 17 16 14 14 13 12 11 8 7 8 8 11 17 21 23 26 31 41 49 56 63 53 38 45
116 120 124 128 123 126 103 92 74 62 44 27 18 15 20 27 28 27 26 22 21 19 16 15 13 14 18 16 11 11 12 12 12 12 16 21 24 28 33 38 44 41 30 26 31

GFSSW_250_spd_141.txt.gz
Wind_Speed
27 19 16 17 15 12 11 11 12 15 20 27 31 37 46 55 62 68 72 77 82 83 86 90 90 91 90 87 84 83 78 68 66 68 71 77 79 76 76 72 62 50 50 57 55
24 19 19 22 22 19 16 16 16 19 24 28 31 35 40 46 55 66 72 75 80 85 88 92 95 97 95 95 92 89 81 74 78 79 78 80 77 79 79 77 66 62 50 55 55
19 20 22 23 24 26 27 26 28 32 32 33 37 41 45 49 53 60 68 73 81 86 90 92 98 97 98 99 99 95 86 89 86 86 86 87 81 83 77 74 77 69 61 56 54
25 24 24 26 28 31 34 37 40 42 46 47 48 53 54 59 60 61 66 71 75 82 88 95 97 99 100 101 105 103 98 97 95 94 92 92 92 85 81 76 81 77 72 63 59
26 27 30 34 36 36 42 45 50 52 54 56 58 58 59 67 67 76 71 76 79 85 88 95 98 101 102 107 109 104 100 102 103 102 99 101 95 93 82 84 85 82 79 73 69
33 34 36 37 41 46 50 55 60 59 65 61 69 67 67 71 75 78 87 87 83 86 94 97 97 104 106 107 111 107 107 107 105 105 106 105 104 100 85 91 91 89 86 83 78
39 38 41 44 49 56 59 64 64 68 67 70 73 72 73 77 84 89 90 97 103 96 98 104 108 108 109 110 113 112 110 107 106 108 109 110 107 93 101 100 99 96 94 91 87
44 44 47 50 56 61 66 71 74 77 77 80 70 72 78 85 92 97 101 105 109 113 113 115 116 117 114 116 117 116 114 112 107 110 110 115 102 102 109 108 106 103 103 97 95
51 53 56 59 64 70 75 80 83 83 85 76 69 68 71 85 94 103 109 111 113 118 120 129 130 122 124 121 121 117 115 112 110 114 113 117 101 108 114 111 109 108 108 107 102
57 58 61 65 72 79 82 88 94 89 81 74 65 67 78 85 87 89 93 98 109 119 119 126 137 137 129 127 120 113 115 117 114 113 119 116 109 111 116 117 114 113 112 111 108
62 64 68 73 79 84 91 98 104 98 89 77 71 72 68 69 67 77 80 83 90 101 113 125 132 140 131 136 130 129 126 121 119 115 116 116 115 114 116 118 117 116 114 114 111
65 71 74 81 86 92 100 103 116 103 90 80 79 67 59 54 56 60 66 70 74 85 103 118 120 117 130 142 142 138 134 124 120 121 116 120 118 112 116 119 115 112 112 113 112
70 74 82 86 95 100 108 113 117 104 92 84 80 65 55 46 44 47 52 58 63 70 85 97 105 116 121 130 141 144 139 130 124 121 119 121 119 113 112 115 114 112 109 109 106
74 78 85 95 102 110 114 119 120 105 97 89 82 67 55 48 42 38 41 47 51 59 70 84 93 103 112 117 121 132 132 136 136 126 122 131 124 118 115 114 113 108 105 102 101
78 83 90 98 106 115 120 124 131 113 103 90 77 68 53 46 40 36 38 38 44 49 56 68 81 95 105 109 121 119 126 133 139 134 134 132 130 116 116 114 108 100 96 95 94
82 87 95 103 108 115 122 130 136 113 109 89 77 69 58 45 44 30 30 33 36 42 47 54 65 77 90 98 106 110 120 124 128 137 141 134 135 114 117 109 106 104 100 98 97
86 92 97 105 111 118 124 130 139 110 105 88 74 66 56 47 43 34 28 25 28 34 40 45 52 62 73 85 96 100 108 115 124 129 134 135 142 121 117 112 106 106 105 105 103
89 95 100 106 112 119 126 131 135 110 103 86 74 63 55 42 37 31 22 19 24 27 34 38 44 52 60 72 82 92 100 104 105 115 120 131 146 128 111 115 110 107 106 106 104
92 98 104 108 114 120 128 131 133 108 100 87 77 65 57 44 32 35 21 18 18 23 28 32 37 43 50 59 67 75 85 96 98 101 112 126 135 124 119 117 114 110 108 108 106
93 99 104 111 115 121 127 131 131 107 96 88 75 60 54 45 36 28 19 18 15 13 19 25 29 34 41 48 55 62 71 80 86 90 90 104 124 115 118 119 114 113 111 110 105
94 99 106 110 115 123 128 130 128 105 94 88 76 61 52 49 36 27 20 17 12 10 15 18 21 27 31 37 45 50 60 67 75 83 88 88 103 101 111 118 121 117 115 110 106
97 99 107 111 117 122 128 129 123 104 92 86 76 61 53 53 38 29 20 14 9 8 8 12 15 15 19 25 32 37 44 51 59 69 78 84 85 88 99 116 119 123 119 114 106
97 104 108 110 115 121 129 130 122 100 87 82 68 60 48 50 35 26 20 15 9 5 1 3 6 7 11 18 24 28 33 40 47 53 61 65 72 84 89 101 113 119 121 119 111
100 105 109 112 115 119 126 133 116 98 83 76 60 54 47 42 33 24 21 17 12 8 6 5 4 2 6 10 15 19 24 27 33 41 45 50 63 69 82 96 101 110 117 116 114
103 108 110 112 118 124 128 131 111 94 79 72 57 43 37 40 29 27 22 18 16 13 11 10 8 6 4 3 7 12 15 19 23 27 30 42 46 49 62 81 94 98 104 107 110
104 108 111 113 118 125 128 133 102 85 79 63 47 38 31 32 24 19 19 20 17 15 12 10 10 8 6 6 4 3 8 11 16 18 23 28 34 37 47 60 80 92 94 91 98
105 109 110 115 118 123 127 128 94 88 74 56 38 31 27 30 24 23 16 13 11 9 9 7 3 5 3 6 10 8 10 12 14 14 17 20 25 30 38 48 58 78 84 82 78

GFSSW_250_spd_144.txt.gz
Wind_Speed
15 16 14 14 11 9 8 9 10 14 18 25 31 37 44 52 59 64 66 72 80 83 85 84 87 90 89 88 87 84 80 69 65 64 65 76 69 76 73 71 67 61 64 63 58
12 10 11 13 15 17 17 16 15 18 22 28 32 36 42 47 53 61 68 73 76 81 84 92 93 94 95 94 94 92 85 75 75 79 77 80 72 74 74 76 70 68 63 64 62
14 17 19 21 20 22 19 22 26 27 32 38 41 44 47 50 56 58 62 71 79 84 87 90 97 100 100 101 99 98 90 87 86 87 87 85 81 81 75 74 77 71 63 64 66
19 22 25 24 24 22 24 29 35 38 45 49 54 55 59 62 65 65 69 72 76 78 89 96 100 103 105 107 108 105 97 96 94 96 94 92 89 88 80 75 81 77 67 62 61
23 27 28 28 28 30 32 37 43 47 53 54 63 63 68 73 75 74 79 80 83 87 91 95 101 105 107 109 115 110 104 103 103 102 100 101 92 92 81 80 83 82 78 71 66
29 32 32 32 34 38 42 47 51 57 57 63 68 73 81 85 82 86 90 92 95 94 97 103 104 110 111 111 113 112 110 109 109 107 106 104 100 98 82 87 88 86 84 78 75
36 36 38 37 41 46 47 51 55 59 64 71 77 81 78 83 87 88 95 100 104 105 109 112 115 115 112 114 118 115 114 113 110 111 110 111 108 91 95 93 94 93 91 85 84
41 42 41 43 46 50 54 60 66 71 75 87 87 81 76 72 80 88 95 102 109 115 114 123 125 126 123 119 119 122 118 118 116 118 117 117 104 102 103 101 100 102 99 91 90
46 47 46 50 53 58 63 71 75 81 85 95 89 81 73 71 76 84 92 104 112 117 121 123 133 133 133 129 126 123 121 121 122 122 123 119 107 110 110 110 107 109 108 98 95
51 51 51 57 60 66 74 80 83 91 97 100 89 76 74 70 71 75 83 92 97 105 118 123 129 131 139 138 132 127 127 126 126 126 125 121 112 118 116 113 110 113 113 106 100
55 57 57 62 64 72 80 89 90 101 105 109 86 76 72 68 59 62 69 76 80 89 97 106 119 127 128 139 144 138 137 134 129 129 128 124 121 118 119 116 113 114 116 110 104
59 62 66 66 71 76 84 93 95 101 110 109 86 77 70 62 61 58 58 61 68 75 79 86 99 112 117 129 135 147 141 134 132 125 130 128 125 121 118 119 118 118 119 113 107
63 67 71 73 79 85 93 97 103 109 115 118 90 78 68 61 54 52 54 49 54 64 69 74 80 87 104 115 124 129 145 141 136 133 130 130 127 121 116 113 122 120 121 118 111
68 70 74 80 86 94 100 103 108 116 119 119 93 79 70 55 51 48 44 46 45 50 56 64 67 74 83 103 117 120 123 138 141 136 135 136 130 125 119 116 120 120 118 118 114
71 75 78 83 92 99 103 107 114 122 123 118 97 83 76 56 42 49 45 45 41 45 49 53 61 66 72 84 97 108 117 117 132 140 140 138 133 124 123 118 114 114 114 117 116
74 77 81 87 94 102 106 110 117 124 130 117 99 87 78 65 51 40 42 39 37 40 43 46 50 59 67 74 84 93 103 107 115 129 140 140 137 122 124 115 103 113 114 117 118
76 80 83 90 96 104 108 112 119 124 132 113 99 91 80 67 58 41 34 33 32 35 37 38 43 48 55 65 73 79 90 97 105 111 123 135 144 122 119 115 106 113 117 116 114
78 82 87 93 98 105 109 113 120 125 129 115 99 95 83 65 63 45 35 30 28 23 30 31 35 38 43 52 59 67 75 83 89 96 100 122 142 129 110 114 113 111 113 108 105
81 84 89 95 100 105 111 115 121 126 128 113 97 93 81 71 57 48 36 28 23 21 22 26 27 27 33 39 47 54 62 69 76 82 93 107 118 114 122 119 113 112 115 109 104
82 85 90 97 103 106 111 116 121 127 130 112 94 89 75 65 58 48 39 29 21 19 19 21 24 20 23 30 36 44 51 57 63 71 80 86 96 96 112 119 117 115 114 113 107
83 87 91 97 105 108 112 118 121 125 128 102 93 87 70 61 55 49 38 30 24 17 10 9 14 14 15 19 25 33 40 46 51 59 68 75 80 86 104 112 121 120 118 115 110
85 89 94 100 105 110 112 120 124 130 125 96 89 82 65 57 51 47 42 31 25 19 14 8 9 10 11 14 17 23 29 35 40 48 52 58 66 78 95 108 118 124 124 118 114
85 91 96 101 104 107 116 120 124 129 117 92 86 76 59 49 49 47 37 31 23 18 14 9 6 5 5 6 10 15 19 26 32 42 45 47 53 65 85 95 111 117 123 123 117
87 93 97 102 105 108 114 120 125 130 105 87 81 68 54 45 44 41 38 35 28 20 14 9 6 5 4 4 3 8 15 20 26 33 34 44 44 52 73 89 100 110 117 120 120
91 95 101 105 107 112 115 120 125 124 98 86 74 60 44 37 41 41 40 37 33 24 17 13 9 6 5 3 3 6 8 14 20 24 29 30 34 40 58 78 89 96 107 113 116
95 98 103 106 108 112 117 120 125 119 91 81 67 52 37 31 31 37 41 34 26 23 21 21 19 15 10 11 5 7 6 9 12 14 15 22 28 32 43 60 76 83 92 104 108
97 99 103 104 108 113 116 121 122 111 81 73 59 40 28 28 28 34 36 28 24 24 22 20 17 12 9 12 7 5 5 4 2 5 10 18 23 34 44 56 64 76 83 92 98

GFSSW_250_spd_147.txt.gz
Wind_Speed
14 16 16 16 11 7 6 4 6 9 12 16 21 26 31 37 44 53 61 67 71 77 81 83 85 86 84 87 86 84 81 70 65 62 61 69 71 74 71 66 60 60 62 63 59
11 13 13 15 14 13 10 6 9 13 15 20 24 29 35 39 41 48 52 56 66 77 83 87 90 91 92 88 89 93 85 77 76 75 75 77 75 76 74 71 67 64 63 69 68
15 16 18 18 18 16 15 14 19 20 24 30 32 39 43 45 50 56 59 63 65 69 76 87 94 99 96 97 94 91 88 90 88 87 88 85 81 79 79 76 74 72 66 65 66
21 16 19 17 18 16 18 21 27 31 35 39 43 48 51 59 62 64 69 71 76 78 82 83 89 100 103 102 104 98 93 99 96 97 95 93 90 85 85 78 80 76 71 69 67
30 26 24 24 23 20 23 29 34 38 43 48 53 59 64 68 76 78 84 88 89 90 93 93 95 97 102 109 110 106 104 99 103 105 101 99 96 94 86 83 82 80 77 74 71
34 36 30 28 29 28 30 35 38 43 49 53 60 67 66 76 82 91 98 99 100 100 99 102 104 106 106 108 113 112 110 109 105 108 108 104 106 100 86 88 88 86 82 80 77
39 41 34 33 36 35 38 42 44 50 56 61 67 69 76 83 92 92 87 89 95 100 110 111 110 111 114 116 116 117 117 113 112 113 110 114 111 96 97 99 96 94 88 86 83
42 43 38 40 40 42 44 46 52 59 65 68 73 76 86 89 82 79 82 87 96 103 110 116 121 120 116 123 125 124 123 120 118 121 118 121 105 101 106 109 104 100 96 92 88
44 45 42 43 46 47 50 55 60 67 72 76 81 91 87 86 74 73 75 78 84 93 103 113 121 126 129 128 130 130 128 124 124 124 126 121 105 115 113 111 110 108 103 99 95
47 48 47 47 49 53 57 62 69 75 78 84 90 97 95 84 68 66 67 68 76 84 93 101 110 120 131 134 131 134 133 132 128 130 128 124 117 120 120 115 111 109 107 103 100
51 53 54 52 52 57 62 69 76 84 91 93 101 101 97 80 66 61 61 62 64 72 78 88 98 107 119 123 129 133 138 136 131 131 133 127 123 122 125 120 117 112 111 108 103
55 58 58 57 58 61 67 75 80 86 91 101 107 106 93 76 67 58 54 57 58 58 65 72 80 91 101 107 120 130 137 137 137 133 136 131 127 124 124 124 123 118 115 111 109
57 62 63 62 64 67 73 81 87 93 98 104 109 112 92 78 67 55 49 52 57 55 53 56 70 77 84 95 101 112 122 133 134 136 136 135 129 127 123 122 123 124 119 115 110
59 64 67 67 69 73 80 88 94 101 105 110 114 115 92 80 72 57 50 44 48 52 43 47 57 67 74 84 88 96 107 118 126 136 136 138 130 131 131 127 123 124 123 119 114
63 68 69 71 73 78 84 92 100 106 110 116 118 113 92 81 74 60 50 45 40 39 41 40 46 57 64 71 72 82 93 104 111 119 134 138 134 131 130 127 118 119 121 123 122
67 71 72 74 76 83 89 96 104 108 111 118 124 111 91 84 76 64 52 46 41 36 33 34 38 42 49 58 62 64 74 85 97 105 113 130 133 129 131 122 121 121 123 123 122
70 73 74 76 80 87 94 100 106 110 114 119 125 110 93 85 77 64 57 45 38 34 30 28 31 32 36 45 50 54 59 69 81 92 96 110 133 126 133 126 124 120 125 123 119
73 76 76 79 83 90 97 103 108 113 115 122 124 108 92 82 75 63 58 45 37 32 28 23 23 21 28 34 37 40 47 55 67 75 85 104 114 121 129 128 130 125 121 122 120
75 76 78 81 86 93 100 106 109 114 117 120 120 109 93 85 69 58 55 45 38 31 26 24 16 15 19 24 27 30 36 41 50 62 75 84 91 103 124 131 129 128 125 123 121
77 76 79 84 88 94 101 106 110 114 118 121 118 110 91 84 67 53 46 45 39 34 26 21 16 12 13 17 21 23 27 30 38 47 54 68 75 93 117 133 135 131 129 125 120
77 78 81 84 90 96 102 107 111 115 120 119 120 103 88 81 62 47 42 39 36 34 30 23 16 13 10 11 13 17 21 25 31 34 38 51 64 85 108 128 137 134 132 128 123
78 81 83 86 92 98 102 107 111 117 121 120 114 96 83 75 56 43 38 37 31 30 31 23 17 11 8 8 11 12 14 19 22 25 33 41 54 70 94 117 128 135 132 128 126
77 81 83 88 94 98 103 106 110 116 121 125 105 88 80 66 44 38 36 34 29 26 25 24 25 20 11 7 6 9 10 15 17 20 26 36 44 63 85 106 123 127 133 130 127
81 83 86 91 95 97 100 105 111 114 119 122 96 81 71 56 38 32 33 33 27 22 21 22 21 19 18 15 11 7 9 12 11 14 22 29 41 59 80 97 114 122 129 132 130
85 87 92 94 97 99 101 105 111 112 119 118 86 73 56 43 36 31 34 32 26 23 18 17 15 20 21 16 12 7 8 10 8 8 12 20 35 53 68 86 102 112 119 126 130
90 93 95 97 98 99 102 105 111 114 116 112 83 63 45 29 24 28 36 30 27 23 20 20 17 23 22 20 15 12 7 7 6 9 14 22 29 46 59 74 87 102 111 116 118
92 95 98 98 99 99 102 106 110 114 116 103 81 59 37 24 28 32 27 24 26 24 23 25 26 24 26 24 23 20 15 6 5 6 13 20 29 40 49 61 75 86 97 113 118